| time (UTC) | temp F | wind direction | speed MPH | gust MPH | rain 1hr in | rain 24hr in | rain mn in | humidity % | barometer mb |
| 20260502152003 | 50 | 205 | 0.0 | 0.0 | 0.00 | 0.06 | 0.06 | 81 | 1012.1 |
| 20260502151503 | 50 | 200 | 0.0 | 0.0 | 0.00 | 0.06 | 0.06 | 83 | 1012.1 |
| 20260502151004 | 50 | 204 | 0.0 | 0.0 | 0.00 | 0.06 | 0.06 | 82 | 1012.1 |
| 20260502150503 | 50 | 204 | 0.0 | 0.0 | 0.00 | 0.06 | 0.06 | 82 | 1012.0 |
| 20260502130502 | 47 | 225 | 0.0 | 0.0 | 0.03 | 0.06 | 0.06 | 90 | 1011.8 |
| 20260502123503 | 47 | 224 | 0.0 | 0.0 | 0.06 | 0.06 | 0.06 | 90 | 1011.9 |
| 20260502123008 | 46 | 224 | 0.0 | 0.0 | 0.06 | 0.06 | 0.06 | 89 | 1011.9 |
| 20260502122506 | 46 | 224 | 0.0 | 0.0 | 0.06 | 0.06 | 0.06 | 88 | 1012.1 |
| 20260502122007 | 46 | 224 | 0.0 | 0.0 | 0.05 | 0.05 | 0.05 | 88 | 1012.3 |
| 20260502121516 | 46 | 224 | 0.0 | 0.0 | 0.05 | 0.05 | 0.05 | 88 | 1012.6 |
| 20260502121004 | 46 | 224 | 0.0 | 0.0 | 0.04 | 0.04 | 0.04 | 88 | 1012.6 |
| 20260502120503 | 46 | 224 | 0.0 | 0.0 | 0.03 | 0.03 | 0.03 | 88 | 1012.7 |
| 20260502115502 | 46 | 224 | 0.0 | 0.0 | 0.01 | 0.01 | 0.01 | 88 | 1012.5 |
| 20260502115004 | 46 | 224 | 0.0 | 0.0 | 0.00 | 0.00 | 0.00 | 88 | 1012.5 |
| 20260502114514 | 45 | 224 | 0.0 | 0.0 | 0.00 | 0.00 | 0.00 | 87 | 1012.4 |
| 20260502114003 | 45 | 224 | 0.0 | 0.0 | 0.00 | 0.00 | 0.00 | 87 | 1012.4 |
| 20260502113503 | 45 | 224 | 0.0 | 0.0 | 0.00 | 0.00 | 0.00 | 87 | 1012.5 |
| 20260502113016 | 45 | 224 | 0.0 | 0.0 | 0.00 | 0.00 | 0.00 | 87 | 1012.5 |
| 20260502112506 | 45 | 224 | 0.0 | 0.0 | 0.00 | 0.00 | 0.00 | 87 | 1012.4 |
| 20260502112004 | 45 | 196 | 0.0 | 0.0 | 0.00 | 0.00 | 0.00 | 87 | 1012.5 |
| 20260502111512 | 45 | 196 | 0.0 | 0.0 | 0.00 | 0.00 | 0.00 | 87 | 1012.3 |
| 20260502111005 | 45 | 196 | 0.0 | 0.0 | 0.00 | 0.00 | 0.00 | 87 | 1012.4 |
| 20260502110503 | 45 | 196 | 0.0 | 0.0 | 0.00 | 0.00 | 0.00 | 87 | 1012.2 |
| 20260502110015 | 45 | 196 | 0.0 | 0.0 | 0.00 | 0.00 | 0.00 | 87 | 1011.9 |
| 20260502105504 | 45 | 196 | 0.0 | 0.0 | 0.00 | 0.00 | 0.00 | 87 | 1011.9 |
| 20260502105006 | 44 | 196 | 0.0 | 0.0 | 0.00 | 0.00 | 0.00 | 86 | 1011.7 |
| 20260502104515 | 44 | 196 | 0.0 | 0.0 | 0.00 | 0.00 | 0.00 | 86 | 1011.7 |
| 20260502104005 | 44 | 196 | 0.0 | 0.0 | 0.00 | 0.00 | 0.00 | 86 | 1011.6 |
| 20260502103503 | 44 | 196 | 0.0 | 0.0 | 0.00 | 0.00 | 0.00 | 86 | 1011.5 |
| 20260502103005 | 44 | 196 | 0.0 | 0.0 | 0.00 | 0.00 | 0.00 | 86 | 1011.6 |
| 20260502102504 | 44 | 196 | 0.0 | 0.0 | 0.00 | 0.00 | 0.00 | 85 | 1011.6 |
| 20260502102003 | 44 | 196 | 0.0 | 0.0 | 0.00 | 0.00 | 0.00 | 85 | 1011.8 |
| 20260502101510 | 44 | 196 | 0.0 | 0.0 | 0.00 | 0.00 | 0.00 | 85 | 1011.9 |
| 20260502101005 | 44 | 196 | 0.0 | 0.0 | 0.00 | 0.00 | 0.00 | 85 | 1011.9 |
| 20260502100508 | 44 | 196 | 0.0 | 0.0 | 0.00 | 0.00 | 0.00 | 85 | 1011.7 |
| 20260502091518 | 44 | 196 | 0.0 | 0.0 | 0.00 | 0.00 | 0.00 | 83 | 1011.6 |
| 20260502091004 | 45 | 196 | 0.0 | 0.0 | 0.00 | 0.00 | 0.00 | 83 | 1011.6 |
| 20260502090504 | 45 | 196 | 0.0 | 0.0 | 0.00 | 0.00 | 0.00 | 83 | 1011.3 |
| 20260502071520 | 46 | 159 | 0.0 | 0.0 | 0.00 | 0.00 | 0.00 | 79 | 1011.7 |
| 20260502071008 | 46 | 159 | 0.0 | 0.0 | 0.00 | 0.00 | 0.00 | 78 | 1011.6 |
| 20260502070507 | 46 | 159 | 0.0 | 0.0 | 0.00 | 0.00 | 0.00 | 78 | 1011.4 |
| 20260502070023 | 46 | 159 | 0.0 | 0.0 | 0.00 | 0.00 | 0.00 | 78 | 1011.5 |
| 20260502065506 | 46 | 159 | 0.0 | 0.0 | 0.00 | 0.00 | 0.00 | 78 | 1011.5 |
| 20260502065010 | 46 | 159 | 0.0 | 0.0 | 0.00 | 0.00 | 0.00 | 78 | 1011.5 |
| 20260502064528 | 46 | 159 | 0.0 | 0.0 | 0.00 | 0.00 | 0.00 | 78 | 1011.6 |
| 20260502064002 | 46 | 159 | 0.0 | 0.0 | 0.00 | 0.00 | 0.00 | 78 | 1011.5 |
| 20260502063504 | 46 | 159 | 0.0 | 0.0 | 0.00 | 0.00 | 0.00 | 78 | 1011.6 |
| 20260502063013 | 46 | 159 | 0.0 | 0.0 | 0.00 | 0.00 | 0.00 | 79 | 1011.7 |
| 20260502062507 | 46 | 159 | 0.0 | 0.0 | 0.00 | 0.00 | 0.00 | 79 | 1011.6 |
| 20260502062006 | 45 | 159 | 0.0 | 0.0 | 0.00 | 0.00 | 0.00 | 79 | 1011.6 |
| 20260502061519 | 46 | 159 | 0.0 | 0.0 | 0.00 | 0.00 | 0.00 | 78 | 1011.7 |
| 20260502061007 | 46 | 159 | 0.0 | 0.0 | 0.00 | 0.00 | 0.00 | 78 | 1011.7 |
| 20260502060505 | 46 | 159 | 0.0 | 0.0 | 0.00 | 0.00 | 0.00 | 78 | 1011.7 |
| 20260502060025 | 46 | 159 | 0.0 | 0.0 | 0.00 | 0.00 | 0.00 | 77 | 1011.8 |
| 20260502055507 | 46 | 159 | 0.0 | 0.0 | 0.00 | 0.00 | 0.00 | 77 | 1011.8 |
| 20260502055007 | 46 | 159 | 0.0 | 0.0 | 0.00 | 0.00 | 0.00 | 76 | 1011.8 |
| 20260502054522 | 46 | 159 | 0.0 | 0.0 | 0.00 | 0.00 | 0.00 | 75 | 1011.9 |
| 20260502054011 | 47 | 159 | 0.0 | 0.0 | 0.00 | 0.00 | 0.00 | 75 | 1011.9 |
| 20260502053508 | 47 | 159 | 0.0 | 0.0 | 0.00 | 0.00 | 0.00 | 76 | 1011.9 |
| 20260502053027 | 47 | 159 | 0.0 | 0.0 | 0.00 | 0.00 | 0.00 | 76 | 1011.9 |
| 20260502052507 | 47 | 159 | 0.0 | 0.0 | 0.00 | 0.00 | 0.00 | 75 | 1011.9 |
| 20260502052007 | 47 | 159 | 0.0 | 0.0 | 0.00 | 0.00 | 0.00 | 75 | 1011.9 |
| 20260502051514 | 47 | 159 | 0.0 | 0.0 | 0.00 | 0.00 | 0.00 | 75 | 1011.9 |
| 20260502051006 | 47 | 159 | 0.0 | 0.0 | 0.00 | 0.00 | 0.00 | 74 | 1011.9 |
| 20260502050506 | 47 | 159 | 0.0 | 0.0 | 0.00 | 0.00 | 0.00 | 74 | 1012.0 |
| 20260502050022 | 47 | 159 | 0.0 | 0.0 | 0.00 | 0.00 | 0.00 | 74 | 1012.0 |
| 20260502045506 | 47 | 159 | 0.0 | 0.0 | 0.00 | 0.00 | 0.00 | 74 | 1012.1 |
| 20260502045006 | 47 | 159 | 0.0 | 0.0 | 0.00 | 0.00 | 0.00 | 74 | 1012.0 |
| 20260502044522 | 48 | 159 | 0.0 | 0.0 | 0.00 | 0.00 | 0.00 | 74 | 1012.0 |
| 20260502044009 | 48 | 159 | 0.0 | 0.0 | 0.00 | 0.00 | 0.00 | 73 | 1011.9 |
| 20260502043507 | 48 | 159 | 0.0 | 0.0 | 0.00 | 0.00 | 0.00 | 72 | 1011.9 |
| 20260502043023 | 48 | 159 | 0.0 | 0.0 | 0.00 | 0.00 | 0.00 | 72 | 1011.9 |
| 20260502042510 | 48 | 159 | 0.0 | 0.0 | 0.00 | 0.00 | 0.00 | 71 | 1011.8 |
| 20260502042010 | 48 | 159 | 0.0 | 0.0 | 0.00 | 0.00 | 0.00 | 72 | 1011.8 |
| 20260502041526 | 48 | 159 | 0.0 | 0.0 | 0.00 | 0.00 | 0.00 | 73 | 1011.8 |
| 20260502041006 | 47 | 159 | 0.0 | 0.0 | 0.00 | 0.00 | 0.00 | 73 | 1011.8 |
| 20260502040506 | 48 | 159 | 0.0 | 0.0 | 0.00 | 0.00 | 0.00 | 73 | 1011.9 |
| 20260502040023 | 48 | 159 | 0.0 | 0.0 | 0.00 | 0.00 | 0.00 | 73 | 1012.0 |
| 20260502035509 | 48 | 159 | 0.0 | 0.0 | 0.00 | 0.00 | 0.00 | 72 | 1012.0 |
| 20260502035007 | 48 | 159 | 0.0 | 0.0 | 0.00 | 0.00 | 0.00 | 71 | 1012.0 |
| 20260502034529 | 48 | 159 | 0.0 | 0.0 | 0.00 | 0.00 | 0.00 | 71 | 1011.9 |
| 20260502034006 | 48 | 159 | 0.0 | 0.0 | 0.00 | 0.00 | 0.00 | 70 | 1012.0 |
| 20260502033505 | 49 | 159 | 0.0 | 0.0 | 0.00 | 0.00 | 0.00 | 69 | 1011.9 |
| 20260502033026 | 49 | 159 | 0.0 | 0.0 | 0.00 | 0.00 | 0.00 | 69 | 1011.9 |
| 20260502032506 | 49 | 159 | 0.0 | 0.0 | 0.00 | 0.00 | 0.00 | 68 | 1012.0 |
| 20260502032007 | 50 | 159 | 0.0 | 0.0 | 0.00 | 0.00 | 0.00 | 67 | 1012.0 |
| 20260502031524 | 50 | 159 | 0.0 | 0.0 | 0.00 | 0.00 | 0.00 | 66 | 1011.9 |
| 20260502031009 | 50 | 159 | 0.0 | 0.0 | 0.00 | 0.00 | 0.00 | 65 | 1012.0 |
| 20260502030512 | 51 | 159 | 0.0 | 0.0 | 0.00 | 0.00 | 0.00 | 65 | 1012.0 |
| 20260502030024 | 51 | 159 | 0.0 | 0.0 | 0.00 | 0.00 | 0.00 | 63 | 1012.0 |
| 20260502025506 | 51 | 159 | 0.0 | 0.0 | 0.00 | 0.00 | 0.00 | 63 | 1012.0 |
| 20260502025004 | 51 | 166 | 0.0 | 0.0 | 0.00 | 0.00 | 0.00 | 63 | 1012.0 |
| 20260502024517 | 52 | 166 | 0.0 | 0.0 | 0.00 | 0.00 | 0.00 | 62 | 1012.0 |
| 20260502024007 | 52 | 165 | 0.0 | 1.0 | 0.00 | 0.00 | 0.00 | 62 | 1012.0 |
| 20260502023507 | 52 | 166 | 0.0 | 1.0 | 0.00 | 0.00 | 0.00 | 63 | 1011.9 |
| 20260502023024 | 52 | 188 | 0.0 | 7.0 | 0.00 | 0.00 | 0.00 | 61 | 1011.9 |
| 20260502022508 | 52 | 188 | 2.0 | 7.0 | 0.00 | 0.00 | 0.00 | 61 | 1011.9 |
| 20260502022014 | 52 | 167 | 0.0 | 1.0 | 0.00 | 0.00 | 0.00 | 60 | 1011.9 |
| 20260502021528 | 52 | 157 | 0.0 | 0.0 | 0.00 | 0.00 | 0.00 | 60 | 1011.8 |
| 20260502021007 | 52 | 157 | 0.0 | 1.0 | 0.00 | 0.00 | 0.00 | 60 | 1011.8 |
| 20260502020509 | 52 | 159 | 0.0 | 1.0 | 0.00 | 0.00 | 0.00 | 60 | 1011.9 |
| 20260502020028 | 52 | 217 | 0.0 | 0.0 | 0.00 | 0.00 | 0.00 | 59 | 1012.0 |
| 20260502015510 | 52 | 203 | 0.0 | 8.0 | 0.00 | 0.00 | 0.00 | 59 | 1012.0 |
| 20260502015011 | 52 | 196 | 0.0 | 8.0 | 0.00 | 0.00 | 0.00 | 59 | 1011.9 |
| 20260502014530 | 52 | 198 | 1.0 | 8.0 | 0.00 | 0.00 | 0.00 | 59 | 1011.9 |
| 20260502014007 | 52 | 180 | 0.0 | 9.0 | 0.00 | 0.00 | 0.00 | 58 | 1011.9 |
| 20260502013506 | 52 | 172 | 0.0 | 9.0 | 0.00 | 0.00 | 0.00 | 59 | 1011.9 |
| 20260502013021 | 51 | 177 | 1.0 | 6.0 | 0.00 | 0.00 | 0.00 | 59 | 1011.9 |
| 20260502012505 | 50 | 198 | 0.0 | 0.0 | 0.00 | 0.00 | 0.00 | 59 | 1011.8 |
| 20260502012010 | 49 | 190 | 0.0 | 1.0 | 0.00 | 0.00 | 0.00 | 60 | 1011.8 |
| 20260502011514 | 48 | 306 | 0.0 | 1.0 | 0.00 | 0.00 | 0.00 | 61 | 1011.7 |
| 20260502011002 | 48 | 229 | 0.0 | 1.0 | 0.00 | 0.00 | 0.00 | 62 | 1011.8 |
| 20260502010504 | 47 | 228 | 0.0 | 1.0 | 0.00 | 0.00 | 0.00 | 62 | 1011.7 |
| 20260502010008 | 47 | 238 | 0.0 | 0.0 | 0.00 | 0.00 | 0.00 | 64 | 1011.5 |
| 20260502005504 | 47 | 238 | 0.0 | 0.0 | 0.00 | 0.00 | 0.00 | 63 | 1011.4 |
| 20260502005005 | 48 | 238 | 0.0 | 0.0 | 0.00 | 0.00 | 0.00 | 65 | 1011.3 |
| 20260502004513 | 48 | 238 | 0.0 | 0.0 | 0.00 | 0.00 | 0.00 | 63 | 1011.3 |
| 20260502004004 | 48 | 238 | 0.0 | 0.0 | 0.00 | 0.00 | 0.00 | 62 | 1011.3 |
| 20260502003503 | 48 | 237 | 0.0 | 0.0 | 0.00 | 0.00 | 0.00 | 61 | 1011.3 |
| 20260502003022 | 48 | 237 | 0.0 | 0.0 | 0.00 | 0.00 | 0.00 | 59 | 1011.1 |
| 20260502002511 | 49 | 237 | 0.0 | 0.0 | 0.00 | 0.00 | 0.00 | 61 | 1011.0 |
| 20260502002008 | 49 | 238 | 0.0 | 0.0 | 0.00 | 0.00 | 0.00 | 59 | 1011.0 |
| 20260502001521 | 50 | 238 | 0.0 | 0.0 | 0.00 | 0.00 | 0.00 | 58 | 1010.9 |
| 20260502001007 | 50 | 238 | 0.0 | 0.0 | 0.00 | 0.00 | 0.00 | 56 | 1010.9 |
| 20260502000507 | 51 | 238 | 0.0 | 0.0 | 0.00 | 0.00 | 0.00 | 57 | 1010.8 |
| 20260502000010 | 51 | 238 | 0.0 | 0.0 | 0.00 | 0.00 | 0.00 | 56 | 1010.6 |
| 20260501235506 | 52 | 238 | 0.0 | 0.0 | 0.00 | 0.00 | 0.00 | 53 | 1010.5 |
| 20260501235003 | 53 | 238 | 0.0 | 0.0 | 0.00 | 0.00 | 0.00 | 52 | 1010.3 |
| 20260501234509 | 54 | 238 | 0.0 | 0.0 | 0.00 | 0.00 | 0.00 | 53 | 1010.3 |
| 20260501234003 | 56 | 238 | 0.0 | 0.0 | 0.00 | 0.00 | 0.00 | 48 | 1010.3 |
| 20260501233504 | 57 | 238 | 0.0 | 0.0 | 0.00 | 0.00 | 0.00 | 42 | 1010.3 |
| 20260501233026 | 57 | 223 | 0.0 | 0.0 | 0.00 | 0.00 | 0.00 | 42 | 1010.2 |
| 20260501232511 | 58 | 222 | 0.0 | 0.0 | 0.00 | 0.00 | 0.00 | 40 | 1010.2 |
| 20260501232007 | 58 | 222 | 0.0 | 0.0 | 0.00 | 0.00 | 0.00 | 38 | 1010.2 |
| 20260501231532 | 58 | 222 | 0.0 | 0.0 | 0.00 | 0.00 | 0.00 | 37 | 1010.1 |
| 20260501231011 | 59 | 223 | 0.0 | 0.0 | 0.00 | 0.00 | 0.00 | 38 | 1010.0 |
| 20260501230508 | 59 | 223 | 0.0 | 1.0 | 0.00 | 0.00 | 0.00 | 37 | 1009.9 |
| 20260501230021 | 59 | 247 | 0.0 | 1.0 | 0.00 | 0.00 | 0.00 | 37 | 1009.8 |
| 20260501225509 | 59 | 275 | 0.0 | 1.0 | 0.00 | 0.00 | 0.00 | 37 | 1009.7 |
| 20260501225011 | 59 | 225 | 0.0 | 4.0 | 0.00 | 0.00 | 0.00 | 36 | 1009.7 |
| 20260501224505 | 60 | 250 | 0.0 | 9.0 | 0.00 | 0.00 | 0.00 | 36 | 1009.6 |
| 20260501224003 | 60 | 219 | 0.0 | 9.0 | 0.00 | 0.00 | 0.00 | 36 | 1009.7 |
| 20260501223504 | 60 | 318 | 0.0 | 1.0 | 0.00 | 0.00 | 0.00 | 36 | 1009.6 |
| 20260501223026 | 60 | 290 | 0.0 | 1.0 | 0.00 | 0.00 | 0.00 | 36 | 1009.6 |
| 20260501222510 | 60 | 279 | 0.0 | 6.0 | 0.00 | 0.00 | 0.00 | 36 | 1009.6 |
| 20260501222010 | 60 | 210 | 0.0 | 8.0 | 0.00 | 0.00 | 0.00 | 35 | 1009.6 |
| 20260501221527 | 61 | 342 | 2.0 | 8.0 | 0.00 | 0.00 | 0.00 | 34 | 1009.6 |
| 20260501221003 | 61 | 330 | 0.0 | 1.0 | 0.00 | 0.00 | 0.00 | 36 | 1009.7 |
| 20260501220507 | 61 | 284 | 0.0 | 9.0 | 0.00 | 0.00 | 0.00 | 35 | 1009.7 |
| 20260501220030 | 60 | 333 | 4.0 | 12.0 | 0.00 | 0.00 | 0.00 | 36 | 1009.8 |
| 20260501215510 | 61 | 313 | 5.0 | 12.0 | 0.00 | 0.00 | 0.00 | 35 | 1009.9 |
| 20260501215008 | 61 | 323 | 1.0 | 11.0 | 0.00 | 0.00 | 0.00 | 36 | 1009.8 |
| 20260501214527 | 61 | 283 | 0.0 | 11.0 | 0.00 | 0.00 | 0.00 | 34 | 1009.8 |
| 20260501214013 | 61 | 305 | 2.0 | 11.0 | 0.00 | 0.00 | 0.00 | 34 | 1009.8 |
| 20260501213511 | 61 | 278 | 0.0 | 10.0 | 0.00 | 0.00 | 0.00 | 35 | 1009.7 |
| 20260501213013 | 61 | 331 | 0.0 | 10.0 | 0.00 | 0.00 | 0.00 | 34 | 1009.7 |
| 20260501212509 | 62 | 347 | 2.0 | 8.0 | 0.00 | 0.00 | 0.00 | 36 | 1009.7 |
| 20260501212003 | 62 | 317 | 1.0 | 7.0 | 0.00 | 0.00 | 0.00 | 33 | 1009.6 |
| 20260501211510 | 61 | 177 | 0.0 | 7.0 | 0.00 | 0.00 | 0.00 | 34 | 1009.6 |
| 20260501211007 | 61 | 287 | 0.0 | 11.0 | 0.00 | 0.00 | 0.00 | 35 | 1009.6 |
| 20260501210506 | 61 | 327 | 1.0 | 11.0 | 0.00 | 0.00 | 0.00 | 34 | 1009.7 |
| 20260501210017 | 61 | 340 | 4.0 | 10.0 | 0.00 | 0.00 | 0.00 | 37 | 1009.6 |
| 20260501205509 | 61 | 330 | 0.0 | 10.0 | 0.00 | 0.00 | 0.00 | 34 | 1009.7 |
| 20260501205013 | 61 | 257 | 2.0 | 10.0 | 0.00 | 0.00 | 0.00 | 32 | 1009.5 |
| 20260501204520 | 61 | 160 | 2.0 | 11.0 | 0.00 | 0.00 | 0.00 | 36 | 1009.5 |
| 20260501204010 | 61 | 256 | 0.0 | 11.0 | 0.00 | 0.00 | 0.00 | 34 | 1009.6 |
| 20260501203508 | 61 | 271 | 3.0 | 11.0 | 0.00 | 0.00 | 0.00 | 35 | 1009.6 |
| 20260501203025 | 61 | 305 | 1.0 | 11.0 | 0.00 | 0.00 | 0.00 | 35 | 1009.5 |
| 20260501202510 | 61 | 295 | 3.0 | 9.0 | 0.00 | 0.00 | 0.00 | 35 | 1009.5 |
| 20260501202011 | 61 | 299 | 3.0 | 9.0 | 0.00 | 0.00 | 0.00 | 36 | 1009.6 |
| 20260501201509 | 61 | 315 | 2.0 | 12.0 | 0.00 | 0.00 | 0.00 | 35 | 1009.5 |
| 20260501201009 | 61 | 319 | 7.0 | 12.0 | 0.00 | 0.00 | 0.00 | 36 | 1009.5 |
| 20260501200511 | 61 | 296 | 6.0 | 11.0 | 0.00 | 0.00 | 0.00 | 34 | 1009.5 |
| 20260501200028 | 61 | 265 | 0.0 | 8.0 | 0.00 | 0.00 | 0.00 | 38 | 1009.4 |
| 20260501195506 | 60 | 304 | 0.0 | 15.0 | 0.00 | 0.00 | 0.00 | 39 | 1009.5 |
| 20260501195010 | 60 | 347 | 6.0 | 15.0 | 0.00 | 0.00 | 0.00 | 36 | 1009.6 |
| 20260501194520 | 60 | 190 | 2.0 | 9.0 | 0.00 | 0.00 | 0.00 | 35 | 1009.5 |
| 20260501194005 | 60 | 342 | 4.0 | 9.0 | 0.00 | 0.00 | 0.00 | 36 | 1009.7 |
| 20260501193508 | 61 | 271 | 4.0 | 10.0 | 0.00 | 0.00 | 0.00 | 34 | 1009.8 |
| 20260501193033 | 60 | 254 | 2.0 | 10.0 | 0.00 | 0.00 | 0.00 | 35 | 1009.8 |
| 20260501192510 | 60 | 324 | 0.0 | 9.0 | 0.00 | 0.00 | 0.00 | 37 | 1009.8 |
| 20260501192002 | 60 | 240 | 0.0 | 12.0 | 0.00 | 0.00 | 0.00 | 37 | 1009.8 |
| 20260501191507 | 60 | 276 | 5.0 | 12.0 | 0.00 | 0.00 | 0.00 | 34 | 1010.0 |
| 20260501191004 | 61 | 254 | 4.0 | 12.0 | 0.00 | 0.00 | 0.00 | 35 | 1010.0 |
| 20260501190503 | 60 | 257 | 4.0 | 12.0 | 0.00 | 0.00 | 0.00 | 36 | 1009.9 |
| 20260501190037 | 60 | 223 | 0.0 | 16.0 | 0.00 | 0.00 | 0.00 | 34 | 1010.0 |
| 20260501185511 | 60 | 325 | 6.0 | 16.0 | 0.00 | 0.00 | 0.00 | 37 | 1009.9 |
| 20260501185010 | 60 | 202 | 3.0 | 12.0 | 0.00 | 0.00 | 0.00 | 36 | 1009.8 |
| 20260501184530 | 60 | 270 | 3.0 | 11.0 | 0.00 | 0.00 | 0.00 | 36 | 1010.0 |
| 20260501184010 | 59 | 338 | 6.0 | 12.0 | 0.00 | 0.00 | 0.00 | 35 | 1010.0 |
| 20260501183505 | 59 | 219 | 2.0 | 13.0 | 0.00 | 0.00 | 0.00 | 37 | 1009.9 |
| 20260501183028 | 59 | 135 | 2.0 | 13.0 | 0.00 | 0.00 | 0.00 | 36 | 1010.0 |
| 20260501182507 | 59 | 298 | 5.0 | 12.0 | 0.00 | 0.00 | 0.00 | 48 | 1010.2 |
| 20260501182010 | 58 | 296 | 0.0 | 11.0 | 0.00 | 0.00 | 0.00 | 41 | 1010.1 |
| 20260501181525 | 59 | 313 | 5.0 | 11.0 | 0.00 | 0.00 | 0.00 | 42 | 1010.2 |
| 20260501181010 | 58 | 329 | 3.0 | 12.0 | 0.00 | 0.00 | 0.00 | 40 | 1010.1 |
| 20260501180505 | 58 | 285 | 5.0 | 12.0 | 0.00 | 0.00 | 0.00 | 41 | 1010.1 |
| 20260501180010 | 57 | 184 | 2.0 | 10.0 | 0.00 | 0.00 | 0.00 | 45 | 1010.2 |
| 20260501175508 | 56 | 345 | 1.0 | 8.0 | 0.00 | 0.00 | 0.00 | 43 | 1010.2 |
| 20260501175004 | 56 | 323 | 0.0 | 10.0 | 0.00 | 0.00 | 0.00 | 43 | 1010.3 |
| 20260501174529 | 56 | 22 | 0.0 | 13.0 | 0.00 | 0.00 | 0.00 | 43 | 1010.3 |
| 20260501174013 | 57 | 315 | 4.0 | 15.0 | 0.00 | 0.00 | 0.00 | 42 | 1010.4 |
| 20260501173506 | 58 | 323 | 4.0 | 15.0 | 0.00 | 0.00 | 0.00 | 41 | 1010.4 |
| 20260501173016 | 59 | 342 | 4.0 | 12.0 | 0.00 | 0.00 | 0.00 | 42 | 1010.3 |
| 20260501172506 | 58 | 223 | 0.0 | 13.0 | 0.00 | 0.00 | 0.00 | 42 | 1010.3 |
| 20260501172007 | 58 | 191 | 1.0 | 14.0 | 0.00 | 0.00 | 0.00 | 47 | 1010.3 |
| 20260501171523 | 57 | 154 | 2.0 | 14.0 | 0.00 | 0.00 | 0.00 | 47 | 1010.5 |
| 20260501171006 | 57 | 252 | 1.0 | 12.0 | 0.00 | 0.00 | 0.00 | 47 | 1010.4 |
| 20260501170511 | 56 | 331 | 2.0 | 13.0 | 0.00 | 0.00 | 0.00 | 45 | 1010.4 |
| 20260501170007 | 55 | 324 | 1.0 | 13.0 | 0.00 | 0.00 | 0.00 | 47 | 1010.4 |
| 20260501165511 | 56 | 347 | 1.0 | 13.0 | 0.00 | 0.00 | 0.00 | 45 | 1010.5 |
| 20260501165010 | 55 | 331 | 0.0 | 13.0 | 0.00 | 0.00 | 0.00 | 51 | 1010.6 |
| 20260501164521 | 56 | 326 | 0.0 | 9.0 | 0.00 | 0.00 | 0.00 | 45 | 1010.6 |
| 20260501164005 | 56 | 344 | 1.0 | 12.0 | 0.00 | 0.00 | 0.00 | 48 | 1010.6 |
| 20260501163507 | 56 | 286 | 5.0 | 13.0 | 0.00 | 0.00 | 0.00 | 47 | 1010.7 |
| 20260501163014 | 55 | 306 | 3.0 | 13.0 | 0.00 | 0.00 | 0.00 | 49 | 1010.7 |
| 20260501162506 | 55 | 214 | 4.0 | 10.0 | 0.00 | 0.00 | 0.00 | 48 | 1010.7 |
| 20260501162010 | 55 | 217 | 1.0 | 13.0 | 0.00 | 0.00 | 0.00 | 52 | 1010.7 |
| 20260501161521 | 54 | 254 | 3.0 | 13.0 | 0.00 | 0.00 | 0.00 | 50 | 1010.8 |
| 20260501161007 | 55 | 298 | 0.0 | 12.0 | 0.00 | 0.00 | 0.00 | 52 | 1010.8 |
| 20260501160506 | 55 | 11 | 2.0 | 12.0 | 0.00 | 0.00 | 0.00 | 50 | 1010.9 |
| 20260501160024 | 54 | 269 | 2.0 | 10.0 | 0.00 | 0.00 | 0.00 | 53 | 1010.9 |
| 20260501155508 | 54 | 290 | 0.0 | 12.0 | 0.00 | 0.00 | 0.00 | 53 | 1010.9 |
| 20260501155013 | 54 | 24 | 5.0 | 12.0 | 0.00 | 0.00 | 0.00 | 51 | 1010.9 |
| 20260501154540 | 54 | 323 | 2.0 | 16.0 | 0.00 | 0.00 | 0.00 | 52 | 1011.0 |
| 20260501154009 | 54 | 173 | 2.0 | 16.0 | 0.00 | 0.01 | 0.00 | 53 | 1011.1 |
| 20260501153511 | 54 | 242 | 3.0 | 12.0 | 0.00 | 0.01 | 0.00 | 55 | 1011.1 |
| 20260501153027 | 54 | 24 | 2.0 | 10.0 | 0.00 | 0.01 | 0.00 | 50 | 1011.0 |